Content
SEND FEEDBACK

Daily
Averages
Monthly
Summary
United Kingdom

DUNGENESS, ENGLAND


Home > Europe > United Kingdom > England
Elevation: 10 feet     Latitude: 50 55N     Longitude: 000 58E

WEATHER
 
SELECT A DAY
Number of Records: 69,819;   Date Range: 7/1/96 - 12/18/14
 
SHARE

PRINT THIS DATA

[ ← Previous Day ]
WEATHER ALMANAC - JULY 20, 2014
[ Next Day → ]
[ °C ]   °F
Weather ElementAverageHighLow
Temperature67.8 °F71.6 °F (11:50 am)64.4 °F (1:50 pm)
Dewpoint67 °F69.8 °F (5:50 pm)64.4 °F (1:50 pm)
Humidity97.1 %100 % (8:50 am)88 % (11:50 am)
Barometer29.84 in29.86 in (2:20 pm)29.80 in (8:50 am)
Wind Speed7.3 mph11.5 mph (1:20 pm)
Weather ElementAverage
Visibility3 mi
Wind DirectionWSW (231.9 °)

Weather ElementTotal
Precipitation---
Cooling Degree Days3 (Base 65)
Growing Degree Days18 (Base 50)
Averaged from 21 records on July 20, 2014
WEATHER CONDITIONS BREAKOUT
WIND DIRECTION BREAKOUT
WEATHER BY HOUR - JULY 20, 2014
[ °C ]   °F
Local TimeTemperatureDewpointHumidityBarometerVisibilityWind DirectionWind SpeedGust SpeedPrecipitationEventsConditions
8:50 AM66.2 °F66.2 °F100 %29.80 in1.1 miWest (260°)5.8 mphOvercast
9:20 AM66.2 °F66.2 °F100 %29.80 inWest (280°)5.8 mphOvercast
9:50 AM66.2 °F66.2 °F100 %29.83 in1.9 miWSW (250°)8.1 mphOvercast
10:20 AM66.2 °F66.2 °F100 %29.80 in1.7 miWest (270°)8.1 mphOvercast
10:50 AM68.0 °F68.0 °F100 %29.80 in2.5 miNW (320°)10.4 mphOvercast
11:20 AM69.8 °F68.0 °F94 %29.80 in3.7 miNNW (340°)3.5 mphMostly Cloudy
11:50 AM71.6 °F68.0 °F88 %29.83 in3.7 miSE (130°)5.8 mphMostly Cloudy
12:20 PM69.8 °F66.2 °F88 %29.83 in3.1 miSouth (180°)8.1 mphHaze
12:50 PM69.8 °F66.2 °F88 %29.83 in2.5 miSSE (160°)10.4 mphHaze
1:20 PM68.0 °F66.2 °F94 %29.83 in0.7 miSouth (180°)11.5 mphOvercast
1:50 PM64.4 °F64.4 °F100 %29.83 in2.5 miSSW (210°)10.4 mphScattered Clouds
2:20 PM66.2 °F64.4 °F94 %29.86 in2.5 miSSW (200°)8.1 mphRain-ThunderstormThunderstorms and Rain
2:50 PM66.2 °F66.2 °F100 %29.86 in2.2 miSSW (210°)9.2 mphRainRain Showers
3:20 PM66.2 °F66.2 °F100 %29.86 in3.7 miSW (220°)10.4 mphRainLight Rain Showers
3:50 PM66.2 °F66.2 °F100 %29.86 in3.7 miSW (230°)9.2 mphScattered Clouds
4:20 PM68.0 °F66.2 °F94 %29.86 in3.7 miWSW (250°)8.1 mphScattered Clouds
4:50 PM68.0 °F68.0 °F100 %29.86 in3.7 miWest (260°)6.9 mphRainLight Rain Showers
5:20 PM68.0 °F68.0 °F100 %29.86 in3.7 miWNW (290°)4.6 mphRainLight Rain Showers
5:50 PM69.8 °F69.8 °F100 %29.86 in4.3 miNorth (350°)4.6 mphPartly Cloudy
6:20 PM69.8 °F69.8 °F100 %29.86 in4.3 miVariable2.3 mphPartly Cloudy
6:50 PM69.8 °F69.8 °F100 %29.86 in4.3 miWest (280°)2.3 mphPartly Cloudy
Hourly data recorded from EGMD, located miles away from Dungeness, England







STORIES FROM OUR PARTNERS